sat.trackr.live / text

‹ back to catalog

2023-085Y

NORAD 57026 · 2023-085Y

PAYLOAD ACTIVE UNKNOWN

§ Identity

Operator
Country
PRC
Launch date
2023-06-15
Launch site
TAISC
Launch vehicle
Mass (kg)
RCS (m²)

External: N2YO · Heavens-Above · Gunter

§ Orbital elements

Epoch: 2026-09-21T21:28:47.788320Z

Period
93.61 min
Inclination
97.5036°
Eccentricity
0.0006087
Mean motion
15.38302172 rev/d
Perigee alt
447.0 km
Apogee alt
455.3 km
Semi-major
6,829.3 km
B*
3.1961e-4
RAAN
20.2011°
Arg perigee
82.1326°
Mean anomaly
278.0609°
Rev number
18,167

§ Raw data

2023-085Y1 57026U 23085Y   26264.89499755  .00011992  00000+0  31961-3 0  99982 57026  97.5036  20.2011 0006087  82.1326 278.0609 15.38302172181678

JSON: /api/v1/satellites/57026 · /tle

For live sub-satellite position, see the globe view (requires WebGL).

§ Visibility from observer

Set your observer location to see the next 7 days of passes ≥ 10°. The values pass through the URL so the page stays shareable.

No JS? Fill the form by hand. The geolocation button needs JavaScript.